EA5JMY-13 Weather Reports


Display with metric or nautical units.
time (UTC)temp
F
wind
direction
speed
MPH
gust
MPH
rain 1hr
in
rain 24hr
in
rain mn
in
humidity
%
barometer
mb
20260505102131 80 0.0 0.0 0.00 0.00 0.00 25 1011.1
20260505101931 80 0.0 0.0 0.00 0.00 0.00 26 1011.1
20260505101731 80 0.0 0.0 0.00 0.00 0.00 26 1011.1
20260505101531 80 0.0 0.0 0.00 0.00 0.00 31 1011.2
20260505101331 80 0.0 0.0 0.00 0.00 0.00 28 1011.2
20260505101131 80 0.0 0.0 0.00 0.00 0.00 29 1011.2
20260505100931 80 0.0 0.0 0.00 0.00 0.00 28 1011.1
20260505100731 80 0.0 0.0 0.00 0.00 0.00 31 1011.1
20260505100531 80 0.0 0.0 0.00 0.00 0.00 28 1011.0
20260505100331 80 0.0 0.0 0.00 0.00 0.00 27 1011.1
20260505100131 80 0.0 0.0 0.00 0.00 0.00 31 1011.1
20260505095931 80 0.0 0.0 0.00 0.00 0.00 28 1011.1
20260505095731 80 0.0 0.0 0.00 0.00 0.00 26 1011.2
20260505095531 80 0.0 0.0 0.00 0.00 0.00 28 1011.2
20260505095331 80 0.0 0.0 0.00 0.00 0.00 29 1011.2
20260505095131 80 0.0 0.0 0.00 0.00 0.00 35 1011.2
20260505094931 80 0.0 0.0 0.00 0.00 0.00 34 1011.2
20260505094731 80 0.0 0.0 0.00 0.00 0.00 33 1011.1
20260505094531 80 0.0 0.0 0.00 0.00 0.00 31 1011.2
20260505094332 80 0.0 0.0 0.00 0.00 0.00 32 1011.1
20260505094131 80 0.0 0.0 0.00 0.00 0.00 36 1011.2
20260505093931 80 0.0 0.0 0.00 0.00 0.00 35 1011.2
20260505093731 80 0.0 0.0 0.00 0.00 0.00 34 1011.3
20260505093531 80 0.0 0.0 0.00 0.00 0.00 33 1011.3
20260505093331 80 0.0 0.0 0.00 0.00 0.00 34 1011.3
20260505093131 80 0.0 0.0 0.00 0.00 0.00 34 1011.2
20260505092931 80 0.0 0.0 0.00 0.00 0.00 36 1011.3
20260505092731 80 0.0 0.0 0.00 0.00 0.00 37 1011.3
20260505092532 80 0.0 0.0 0.00 0.00 0.00 36 1011.4
20260505092331 80 0.0 0.0 0.00 0.00 0.00 34 1011.4
20260505092131 80 0.0 0.0 0.00 0.00 0.00 34 1011.3
20260505091931 80 0.0 0.0 0.00 0.00 0.00 35 1011.4
20260505091731 80 0.0 0.0 0.00 0.00 0.00 34 1011.4
20260505091531 80 0.0 0.0 0.00 0.00 0.00 34 1011.4
20260505091331 80 0.0 0.0 0.00 0.00 0.00 35 1011.4
20260505091132 80 0.0 0.0 0.00 0.00 0.00 36 1011.3
20260505090932 80 0.0 0.0 0.00 0.00 0.00 39 1011.4
20260505090731 80 0.0 0.0 0.00 0.00 0.00 39 1011.4
20260505090531 80 0.0 0.0 0.00 0.00 0.00 39 1011.4
20260505090331 80 0.0 0.0 0.00 0.00 0.00 39 1011.4
20260505090131 79 0.0 0.0 0.00 0.00 0.00 40 1011.4
20260505085931 79 0.0 0.0 0.00 0.00 0.00 40 1011.4
20260505085731 79 0.0 0.0 0.00 0.00 0.00 40 1011.5
20260505085531 79 0.0 0.0 0.00 0.00 0.00 40 1011.4
20260505085332 79 0.0 0.0 0.00 0.00 0.00 40 1011.4
20260505085131 79 0.0 0.0 0.00 0.00 0.00 40 1011.5
20260505084932 79 0.0 0.0 0.00 0.00 0.00 40 1011.5
20260505084733 79 0.0 0.0 0.00 0.00 0.00 40 1011.5
20260505084531 79 0.0 0.0 0.00 0.00 0.00 40 1011.5
20260505084331 79 0.0 0.0 0.00 0.00 0.00 39 1011.6
20260505084131 79 0.0 0.0 0.00 0.00 0.00 39 1011.5
20260505083931 79 0.0 0.0 0.00 0.00 0.00 39 1011.5
20260505083731 79 0.0 0.0 0.00 0.00 0.00 38 1011.5
20260505083531 79 0.0 0.0 0.00 0.00 0.00 38 1011.5
20260505083331 79 0.0 0.0 0.00 0.00 0.00 38 1011.7
20260505083131 79 0.0 0.0 0.00 0.00 0.00 39 1011.6
20260505082931 79 0.0 0.0 0.00 0.00 0.00 39 1011.6
20260505082731 79 0.0 0.0 0.00 0.00 0.00 39 1011.6
20260505082531 79 0.0 0.0 0.00 0.00 0.00 40 1011.6
20260505082332 79 0.0 0.0 0.00 0.00 0.00 40 1011.6
20260505082131 79 0.0 0.0 0.00 0.00 0.00 40 1011.6
20260505081931 79 0.0 0.0 0.00 0.00 0.00 41 1011.6
20260505081731 79 0.0 0.0 0.00 0.00 0.00 40 1011.7
20260505081531 79 0.0 0.0 0.00 0.00 0.00 40 1011.7
20260505081331 79 0.0 0.0 0.00 0.00 0.00 40 1011.7
20260505081131 78 0.0 0.0 0.00 0.00 0.00 40 1011.7
20260505080931 78 0.0 0.0 0.00 0.00 0.00 40 1011.8
20260505080731 78 0.0 0.0 0.00 0.00 0.00 40 1011.7
20260505080531 78 0.0 0.0 0.00 0.00 0.00 39 1011.7
20260505080331 78 0.0 0.0 0.00 0.00 0.00 39 1011.7
20260505080132 78 0.0 0.0 0.00 0.00 0.00 39 1011.8
20260505075931 78 0.0 0.0 0.00 0.00 0.00 39 1011.7
20260505075732 78 0.0 0.0 0.00 0.00 0.00 39 1011.8
20260505075531 78 0.0 0.0 0.00 0.00 0.00 39 1011.8
20260505075331 78 0.0 0.0 0.00 0.00 0.00 38 1011.8
20260505075131 78 0.0 0.0 0.00 0.00 0.00 39 1011.9
20260505074932 78 0.0 0.0 0.00 0.00 0.00 39 1011.8
20260505074732 78 0.0 0.0 0.00 0.00 0.00 40 1011.8
20260505074531 78 0.0 0.0 0.00 0.00 0.00 40 1011.9
20260505074331 78 0.0 0.0 0.00 0.00 0.00 41 1011.9
20260505074131 78 0.0 0.0 0.00 0.00 0.00 41 1011.9
20260505073934 78 0.0 0.0 0.00 0.00 0.00 40 1011.9
20260505073731 78 0.0 0.0 0.00 0.00 0.00 41 1011.9
20260505073531 78 0.0 0.0 0.00 0.00 0.00 40 1011.9
20260505073331 78 0.0 0.0 0.00 0.00 0.00 41 1012.0
20260505073131 78 0.0 0.0 0.00 0.00 0.00 42 1011.9
20260505072931 78 0.0 0.0 0.00 0.00 0.00 42 1012.0
20260505072731 78 0.0 0.0 0.00 0.00 0.00 42 1012.0
20260505072531 78 0.0 0.0 0.00 0.00 0.00 42 1012.0
20260505072331 78 0.0 0.0 0.00 0.00 0.00 42 1012.0
20260505072131 79 0.0 0.0 0.00 0.00 0.00 41 1012.0
20260505071931 79 0.0 0.0 0.00 0.00 0.00 41 1011.9
20260505071731 78 0.0 0.0 0.00 0.00 0.00 44 1011.9
20260505071531 77 0.0 0.0 0.00 0.00 0.00 45 1012.0
20260505071331 76 0.0 0.0 0.00 0.00 0.00 44 1012.0
20260505071131 76 0.0 0.0 0.00 0.00 0.00 46 1012.0
20260505070931 76 0.0 0.0 0.00 0.00 0.00 46 1012.0
20260505070731 76 0.0 0.0 0.00 0.00 0.00 46 1012.0
20260505070532 76 0.0 0.0 0.00 0.00 0.00 46 1011.9
20260505070331 76 0.0 0.0 0.00 0.00 0.00 46 1012.1
20260505070131 76 0.0 0.0 0.00 0.00 0.00 47 1012.0
20260505065932 76 0.0 0.0 0.00 0.00 0.00 47 1012.0
20260505065731 76 0.0 0.0 0.00 0.00 0.00 47 1012.0
20260505065531 76 0.0 0.0 0.00 0.00 0.00 48 1012.0
20260505065332 76 0.0 0.0 0.00 0.00 0.00 48 1012.1
20260505065132 76 0.0 0.0 0.00 0.00 0.00 48 1012.0
20260505064931 76 0.0 0.0 0.00 0.00 0.00 48 1012.0
20260505064731 76 0.0 0.0 0.00 0.00 0.00 48 1012.0
20260505064531 76 0.0 0.0 0.00 0.00 0.00 49 1012.1
20260505064331 76 0.0 0.0 0.00 0.00 0.00 49 1012.0
20260505064131 76 0.0 0.0 0.00 0.00 0.00 49 1012.0
20260505063931 76 0.0 0.0 0.00 0.00 0.00 49 1011.9
20260505063731 76 0.0 0.0 0.00 0.00 0.00 49 1011.9
20260505063531 76 0.0 0.0 0.00 0.00 0.00 50 1011.9
20260505063331 76 0.0 0.0 0.00 0.00 0.00 50 1012.0
20260505063131 76 0.0 0.0 0.00 0.00 0.00 49 1011.9
20260505062932 76 0.0 0.0 0.00 0.00 0.00 49 1011.9
20260505062731 76 0.0 0.0 0.00 0.00 0.00 50 1011.9
20260505062531 76 0.0 0.0 0.00 0.00 0.00 50 1011.9
20260505062331 76 0.0 0.0 0.00 0.00 0.00 50 1011.9
20260505062131 76 0.0 0.0 0.00 0.00 0.00 50 1012.0
20260505061931 76 0.0 0.0 0.00 0.00 0.00 51 1011.9
20260505061731 76 0.0 0.0 0.00 0.00 0.00 51 1011.9
20260505061531 76 0.0 0.0 0.00 0.00 0.00 51 1012.0
20260505061331 76 0.0 0.0 0.00 0.00 0.00 51 1011.8
20260505061133 76 0.0 0.0 0.00 0.00 0.00 51 1011.8
20260505060931 76 0.0 0.0 0.00 0.00 0.00 51 1011.9
20260505060731 76 0.0 0.0 0.00 0.00 0.00 51 1011.9
20260505060531 76 0.0 0.0 0.00 0.00 0.00 51 1011.9
20260505060334 76 0.0 0.0 0.00 0.00 0.00 51 1011.8
20260505060131 76 0.0 0.0 0.00 0.00 0.00 51 1011.8
20260505055931 76 0.0 0.0 0.00 0.00 0.00 51 1011.9
20260505055731 76 0.0 0.0 0.00 0.00 0.00 51 1011.9
20260505055531 76 0.0 0.0 0.00 0.00 0.00 51 1011.9
20260505055332 76 0.0 0.0 0.00 0.00 0.00 51 1011.9
20260505055131 76 0.0 0.0 0.00 0.00 0.00 51 1011.8
20260505054931 76 0.0 0.0 0.00 0.00 0.00 51 1011.8
20260505054731 76 0.0 0.0 0.00 0.00 0.00 51 1011.8
20260505054531 76 0.0 0.0 0.00 0.00 0.00 51 1011.8
20260505054331 76 0.0 0.0 0.00 0.00 0.00 52 1011.8
20260505054131 76 0.0 0.0 0.00 0.00 0.00 52 1011.9
20260505053931 76 0.0 0.0 0.00 0.00 0.00 52 1011.8
20260505053732 76 0.0 0.0 0.00 0.00 0.00 52 1011.8
20260505053531 76 0.0 0.0 0.00 0.00 0.00 52 1011.8
20260505053331 76 0.0 0.0 0.00 0.00 0.00 52 1011.7
20260505053131 76 0.0 0.0 0.00 0.00 0.00 52 1011.8
20260505052931 76 0.0 0.0 0.00 0.00 0.00 52 1011.8
20260505052731 76 0.0 0.0 0.00 0.00 0.00 53 1011.8
20260505052531 76 0.0 0.0 0.00 0.00 0.00 53 1011.7
20260505052331 76 0.0 0.0 0.00 0.00 0.00 53 1011.7
20260505052131 76 0.0 0.0 0.00 0.00 0.00 53 1011.8
20260505051931 76 0.0 0.0 0.00 0.00 0.00 53 1011.7
20260505051731 76 0.0 0.0 0.00 0.00 0.00 53 1011.6
20260505051531 76 0.0 0.0 0.00 0.00 0.00 53 1011.6
20260505051331 76 0.0 0.0 0.00 0.00 0.00 53 1011.7
20260505051131 76 0.0 0.0 0.00 0.00 0.00 53 1011.6
20260505050931 76 0.0 0.0 0.00 0.00 0.00 53 1011.6
20260505050731 76 0.0 0.0 0.00 0.00 0.00 52 1011.7
20260505050531 76 0.0 0.0 0.00 0.00 0.00 52 1011.6
20260505050331 76 0.0 0.0 0.00 0.00 0.00 52 1011.6
20260505050131 76 0.0 0.0 0.00 0.00 0.00 51 1011.7
20260505041731 76 0.0 0.0 0.00 0.00 0.00 51 1011.7
20260505041532 76 0.0 0.0 0.00 0.00 0.00 51 1011.7
20260505041331 76 0.0 0.0 0.00 0.00 0.00 51 1011.6
20260505041131 76 0.0 0.0 0.00 0.00 0.00 51 1011.8
20260505040931 76 0.0 0.0 0.00 0.00 0.00 50 1011.8
20260505040731 76 0.0 0.0 0.00 0.00 0.00 50 1011.7
20260505040531 76 0.0 0.0 0.00 0.00 0.00 50 1011.7
20260505040331 76 0.0 0.0 0.00 0.00 0.00 50 1011.7
20260505040131 76 0.0 0.0 0.00 0.00 0.00 50 1011.8
20260505035931 76 0.0 0.0 0.00 0.00 0.00 50 1011.7
20260505035731 76 0.0 0.0 0.00 0.00 0.00 50 1011.7
20260505035531 76 0.0 0.0 0.00 0.00 0.00 50 1011.8
20260505035331 76 0.0 0.0 0.00 0.00 0.00 50 1011.7
20260505035131 76 0.0 0.0 0.00 0.00 0.00 50 1011.7
20260505034932 76 0.0 0.0 0.00 0.00 0.00 50 1011.7
20260505034731 76 0.0 0.0 0.00 0.00 0.00 50 1011.8
20260505034532 76 0.0 0.0 0.00 0.00 0.00 50 1011.9
20260505034331 76 0.0 0.0 0.00 0.00 0.00 50 1011.9
20260505034131 76 0.0 0.0 0.00 0.00 0.00 50 1011.9
20260505033931 76 0.0 0.0 0.00 0.00 0.00 50 1011.9
20260505033731 76 0.0 0.0 0.00 0.00 0.00 50 1011.9
20260505033531 77 0.0 0.0 0.00 0.00 0.00 50 1011.9
20260505033332 76 0.0 0.0 0.00 0.00 0.00 50 1012.0
20260505033131 77 0.0 0.0 0.00 0.00 0.00 50 1012.0
20260505032932 77 0.0 0.0 0.00 0.00 0.00 50 1012.0
20260505032731 77 0.0 0.0 0.00 0.00 0.00 50 1012.0
20260505032531 77 0.0 0.0 0.00 0.00 0.00 50 1012.0
20260505032331 77 0.0 0.0 0.00 0.00 0.00 50 1012.0
20260505032131 77 0.0 0.0 0.00 0.00 0.00 50 1011.9
20260505031931 77 0.0 0.0 0.00 0.00 0.00 50 1011.9
20260505031731 77 0.0 0.0 0.00 0.00 0.00 50 1011.8
20260505031531 77 0.0 0.0 0.00 0.00 0.00 50 1011.9
20260505031331 76 0.0 0.0 0.00 0.00 0.00 50 1011.9
20260505031131 77 0.0 0.0 0.00 0.00 0.00 50 1011.9
20260505030931 77 0.0 0.0 0.00 0.00 0.00 50 1012.0
20260505030731 77 0.0 0.0 0.00 0.00 0.00 50 1012.0
20260505030531 77 0.0 0.0 0.00 0.00 0.00 50 1011.9
20260505030331 77 0.0 0.0 0.00 0.00 0.00 50 1012.0
20260505030131 77 0.0 0.0 0.00 0.00 0.00 50 1012.0
20260505025931 77 0.0 0.0 0.00 0.00 0.00 50 1012.0
20260505025731 77 0.0 0.0 0.00 0.00 0.00 50 1012.0
20260505025531 77 0.0 0.0 0.00 0.00 0.00 50 1011.9
20260505025331 77 0.0 0.0 0.00 0.00 0.00 50 1011.9
20260505025131 77 0.0 0.0 0.00 0.00 0.00 50 1011.9
20260505024931 77 0.0 0.0 0.00 0.00 0.00 49 1012.0
20260505024731 77 0.0 0.0 0.00 0.00 0.00 50 1012.1
20260505024531 77 0.0 0.0 0.00 0.00 0.00 49 1012.2
20260505024132 77 0.0 0.0 0.00 0.00 0.00 50 1012.1
20260505023931 77 0.0 0.0 0.00 0.00 0.00 50 1012.0
20260505023731 77 0.0 0.0 0.00 0.00 0.00 50 1012.1
20260505023531 77 0.0 0.0 0.00 0.00 0.00 50 1012.0
20260505023331 77 0.0 0.0 0.00 0.00 0.00 49 1012.0
20260505023131 77 0.0 0.0 0.00 0.00 0.00 50 1012.0
20260505022931 77 0.0 0.0 0.00 0.00 0.00 50 1012.0
20260505022731 77 0.0 0.0 0.00 0.00 0.00 50 1012.0
20260505022531 77 0.0 0.0 0.00 0.00 0.00 50 1012.0
20260505022331 77 0.0 0.0 0.00 0.00 0.00 49 1012.0
20260505022131 77 0.0 0.0 0.00 0.00 0.00 49 1012.1
20260505021931 77 0.0 0.0 0.00 0.00 0.00 49 1012.1
20260505021732 77 0.0 0.0 0.00 0.00 0.00 49 1012.1
20260505021531 77 0.0 0.0 0.00 0.00 0.00 49 1012.1
20260505021332 77 0.0 0.0 0.00 0.00 0.00 49 1012.0
20260505021132 77 0.0 0.0 0.00 0.00 0.00 50 1012.0
20260505020931 77 0.0 0.0 0.00 0.00 0.00 50 1012.0
20260505020731 77 0.0 0.0 0.00 0.00 0.00 50 1012.0
20260505020532 77 0.0 0.0 0.00 0.00 0.00 50 1011.9
20260505020331 77 0.0 0.0 0.00 0.00 0.00 50 1011.9
20260505020131 77 0.0 0.0 0.00 0.00 0.00 50 1011.9
20260505015931 77 0.0 0.0 0.00 0.00 0.00 50 1011.9
20260505015731 77 0.0 0.0 0.00 0.00 0.00 50 1011.9
20260505015531 77 0.0 0.0 0.00 0.00 0.00 50 1012.0
20260505015331 77 0.0 0.0 0.00 0.00 0.00 50 1011.9
20260505015131 77 0.0 0.0 0.00 0.00 0.00 50 1011.9
20260505014931 77 0.0 0.0 0.00 0.00 0.00 50 1011.9
20260505014731 77 0.0 0.0 0.00 0.00 0.00 50 1011.9
20260505014531 77 0.0 0.0 0.00 0.00 0.00 50 1012.0
20260505014331 77 0.0 0.0 0.00 0.00 0.00 50 1012.0
20260505014132 77 0.0 0.0 0.00 0.00 0.00 50 1012.0
20260505013931 77 0.0 0.0 0.00 0.00 0.00 50 1011.9
20260505013731 77 0.0 0.0 0.00 0.00 0.00 50 1011.9
20260505013531 77 0.0 0.0 0.00 0.00 0.00 50 1011.9
20260505013331 77 0.0 0.0 0.00 0.00 0.00 50 1011.9
20260505013131 77 0.0 0.0 0.00 0.00 0.00 50 1012.0
20260505012931 77 0.0 0.0 0.00 0.00 0.00 50 1012.0
20260505012731 77 0.0 0.0 0.00 0.00 0.00 50 1012.0
20260505012531 77 0.0 0.0 0.00 0.00 0.00 50 1012.0
20260505012331 77 0.0 0.0 0.00 0.00 0.00 50 1012.0
20260505012131 77 0.0 0.0 0.00 0.00 0.00 50 1012.0
20260505011931 77 0.0 0.0 0.00 0.00 0.00 50 1012.0
20260505011733 77 0.0 0.0 0.00 0.00 0.00 50 1012.1
20260505011531 77 0.0 0.0 0.00 0.00 0.00 50 1012.0
20260505011331 77 0.0 0.0 0.00 0.00 0.00 50 1012.1
20260505011131 77 0.0 0.0 0.00 0.00 0.00 50 1012.1
20260505010931 77 0.0 0.0 0.00 0.00 0.00 50 1012.2
20260505010731 77 0.0 0.0 0.00 0.00 0.00 50 1012.2
20260505010532 77 0.0 0.0 0.00 0.00 0.00 50 1012.2
20260505010331 77 0.0 0.0 0.00 0.00 0.00 50 1012.2
20260505010131 77 0.0 0.0 0.00 0.00 0.00 50 1012.3
20260505005931 77 0.0 0.0 0.00 0.00 0.00 50 1012.3
20260505005731 77 0.0 0.0 0.00 0.00 0.00 50 1012.3
20260505005531 77 0.0 0.0 0.00 0.00 0.00 50 1012.5
20260505005331 77 0.0 0.0 0.00 0.00 0.00 50 1012.4
20260505005131 77 0.0 0.0 0.00 0.00 0.00 50 1012.4
20260505004931 77 0.0 0.0 0.00 0.00 0.00 50 1012.5
20260505004731 77 0.0 0.0 0.00 0.00 0.00 50 1012.4
20260505004532 77 0.0 0.0 0.00 0.00 0.00 50 1012.6
20260505004331 77 0.0 0.0 0.00 0.00 0.00 50 1012.6
20260505004131 77 0.0 0.0 0.00 0.00 0.00 50 1012.6
20260505003931 77 0.0 0.0 0.00 0.00 0.00 50 1012.7
20260505003731 77 0.0 0.0 0.00 0.00 0.00 50 1012.6
20260505003531 77 0.0 0.0 0.00 0.00 0.00 50 1012.6
20260505003331 77 0.0 0.0 0.00 0.00 0.00 50 1012.6
20260505003131 77 0.0 0.0 0.00 0.00 0.00 51 1012.7
20260505002931 77 0.0 0.0 0.00 0.00 0.00 51 1012.6
20260505002731 77 0.0 0.0 0.00 0.00 0.00 51 1012.7
20260505002531 77 0.0 0.0 0.00 0.00 0.00 51 1012.6
20260505002331 77 0.0 0.0 0.00 0.00 0.00 51 1012.6
20260505002131 77 0.0 0.0 0.00 0.00 0.00 51 1012.7
20260505001931 77 0.0 0.0 0.00 0.00 0.00 51 1012.6
20260505001731 77 0.0 0.0 0.00 0.00 0.00 51 1012.7
20260505001531 77 0.0 0.0 0.00 0.00 0.00 51 1012.7
20260505001331 77 0.0 0.0 0.00 0.00 0.00 51 1012.7
20260505001131 77 0.0 0.0 0.00 0.00 0.00 51 1012.6
20260505000931 77 0.0 0.0 0.00 0.00 0.00 51 1012.7
20260505000731 77 0.0 0.0 0.00 0.00 0.00 50 1012.8
20260505000531 77 0.0 0.0 0.00 0.00 0.00 51 1012.8
20260505000331 77 0.0 0.0 0.00 0.00 0.00 50 1012.8
20260505000131 77 0.0 0.0 0.00 0.00 0.00 50 1012.7
20260504235931 77 0.0 0.0 0.00 0.00 0.00 50 1012.6
20260504235731 77 0.0 0.0 0.00 0.00 0.00 50 1012.6
20260504235531 77 0.0 0.0 0.00 0.00 0.00 51 1012.6
20260504235331 77 0.0 0.0 0.00 0.00 0.00 51 1012.7
20260504235131 77 0.0 0.0 0.00 0.00 0.00 51 1012.7
20260504234931 77 0.0 0.0 0.00 0.00 0.00 51 1012.7
20260504234731 77 0.0 0.0 0.00 0.00 0.00 51 1012.7
20260504234531 77 0.0 0.0 0.00 0.00 0.00 51 1012.7
20260504234331 77 0.0 0.0 0.00 0.00 0.00 51 1012.7
20260504234131 77 0.0 0.0 0.00 0.00 0.00 51 1012.7
20260504233931 77 0.0 0.0 0.00 0.00 0.00 51 1012.7
20260504233731 77 0.0 0.0 0.00 0.00 0.00 51 1012.8
20260504233531 77 0.0 0.0 0.00 0.00 0.00 51 1012.7
20260504233331 77 0.0 0.0 0.00 0.00 0.00 51 1012.7
20260504233131 77 0.0 0.0 0.00 0.00 0.00 51 1012.7
20260504232931 77 0.0 0.0 0.00 0.00 0.00 51 1012.6
20260504232731 77 0.0 0.0 0.00 0.00 0.00 51 1012.7
20260504232531 77 0.0 0.0 0.00 0.00 0.00 51 1012.7
20260504232332 77 0.0 0.0 0.00 0.00 0.00 51 1012.7
20260504232131 77 0.0 0.0 0.00 0.00 0.00 51 1012.6
20260504231931 77 0.0 0.0 0.00 0.00 0.00 50 1012.7
20260504231731 77 0.0 0.0 0.00 0.00 0.00 50 1012.7
20260504231531 77 0.0 0.0 0.00 0.00 0.00 50 1012.7
20260504231332 77 0.0 0.0 0.00 0.00 0.00 51 1012.7
20260504231131 77 0.0 0.0 0.00 0.00 0.00 51 1012.8
20260504230931 77 0.0 0.0 0.00 0.00 0.00 51 1012.8
20260504230731 77 0.0 0.0 0.00 0.00 0.00 51 1012.7
20260504230531 77 0.0 0.0 0.00 0.00 0.00 51 1012.7
20260504230331 77 0.0 0.0 0.00 0.00 0.00 51 1012.7
20260504230133 77 0.0 0.0 0.00 0.00 0.00 51 1012.7
20260504225932 77 0.0 0.0 0.00 0.00 0.00 51 1012.7
20260504225731 77 0.0 0.0 0.00 0.00 0.00 51 1012.6
20260504225531 77 0.0 0.0 0.00 0.00 0.00 50 1012.6
20260504225332 77 0.0 0.0 0.00 0.00 0.00 51 1012.6
20260504225131 77 0.0 0.0 0.00 0.00 0.00 51 1012.6
20260504224931 77 0.0 0.0 0.00 0.00 0.00 50 1012.6
20260504224731 77 0.0 0.0 0.00 0.00 0.00 50 1012.6
20260504224532 77 0.0 0.0 0.00 0.00 0.00 51 1012.7
20260504224332 77 0.0 0.0 0.00 0.00 0.00 51 1012.5
20260504224131 77 0.0 0.0 0.00 0.00 0.00 51 1012.6
20260504223932 77 0.0 0.0 0.00 0.00 0.00 51 1012.7
20260504223732 77 0.0 0.0 0.00 0.00 0.00 51 1012.7
20260504223531 77 0.0 0.0 0.00 0.00 0.00 51 1012.6
20260504223331 77 0.0 0.0 0.00 0.00 0.00 51 1012.6
20260504223131 77 0.0 0.0 0.00 0.00 0.00 51 1012.6
20260504222931 78 0.0 0.0 0.00 0.00 0.00 51 1012.6
20260504222731 77 0.0 0.0 0.00 0.00 0.00 51 1012.6
20260504222531 77 0.0 0.0 0.00 0.00 0.00 51 1012.6
20260504222331 77 0.0 0.0 0.00 0.00 0.00 51 1012.6
20260504222131 77 0.0 0.0 0.00 0.00 0.00 51 1012.6
20260504221931 78 0.0 0.0 0.00 0.00 0.00 51 1012.6
20260504221731 78 0.0 0.0 0.00 0.00 0.00 51 1012.5
20260504221531 78 0.0 0.0 0.00 0.00 0.00 51 1012.5
20260504221331 78 0.0 0.0 0.00 0.00 0.00 51 1012.5
20260504221131 78 0.0 0.0 0.00 0.00 0.00 51 1012.5
20260504220931 78 0.0 0.0 0.00 0.00 0.00 51 1012.4
20260504220731 78 0.0 0.0 0.00 0.00 0.00 51 1012.3
20260504220531 78 0.0 0.0 0.00 0.00 0.00 51 1012.5
20260504220331 78 0.0 0.0 0.00 0.00 0.00 51 1012.6
20260504220131 78 0.0 0.0 0.00 0.00 0.00 51 1012.6
20260504215931 77 0.0 0.0 0.00 0.00 0.00 51 1012.5
20260504215731 77 0.0 0.0 0.00 0.00 0.00 51 1012.5
20260504215531 77 0.0 0.0 0.00 0.00 0.00 51 1012.5
20260504215331 77 0.0 0.0 0.00 0.00 0.00 52 1012.5
20260504215131 77 0.0 0.0 0.00 0.00 0.00 52 1012.5
20260504214931 77 0.0 0.0 0.00 0.00 0.00 52 1012.4
20260504214731 77 0.0 0.0 0.00 0.00 0.00 52 1012.5
20260504214531 77 0.0 0.0 0.00 0.00 0.00 52 1012.5
20260504214331 77 0.0 0.0 0.00 0.00 0.00 52 1012.5
20260504214131 77 0.0 0.0 0.00 0.00 0.00 52 1012.5
20260504213931 77 0.0 0.0 0.00 0.00 0.00 52 1012.6
20260504213731 77 0.0 0.0 0.00 0.00 0.00 51 1012.5
20260504213531 77 0.0 0.0 0.00 0.00 0.00 52 1012.5
20260504213331 77 0.0 0.0 0.00 0.00 0.00 52 1012.5
20260504213131 77 0.0 0.0 0.00 0.00 0.00 52 1012.4
20260504212931 77 0.0 0.0 0.00 0.00 0.00 51 1012.5
20260504212731 77 0.0 0.0 0.00 0.00 0.00 51 1012.5
20260504212531 77 0.0 0.0 0.00 0.00 0.00 52 1012.4
20260504212331 77 0.0 0.0 0.00 0.00 0.00 51 1012.4
20260504212131 78 0.0 0.0 0.00 0.00 0.00 52 1012.3
20260504211931 77 0.0 0.0 0.00 0.00 0.00 52 1012.4
20260504211731 77 0.0 0.0 0.00 0.00 0.00 52 1012.3
20260504211531 77 0.0 0.0 0.00 0.00 0.00 52 1012.3
20260504211331 77 0.0 0.0 0.00 0.00 0.00 52 1012.3
20260504211131 78 0.0 0.0 0.00 0.00 0.00 52 1012.3
20260504210931 78 0.0 0.0 0.00 0.00 0.00 52 1012.3
20260504210731 78 0.0 0.0 0.00 0.00 0.00 52 1012.4
20260504210532 78 0.0 0.0 0.00 0.00 0.00 52 1012.3
20260504210331 78 0.0 0.0 0.00 0.00 0.00 52 1012.4
20260504210132 78 0.0 0.0 0.00 0.00 0.00 52 1012.4
20260504205931 78 0.0 0.0 0.00 0.00 0.00 52 1012.3
20260504205732 78 0.0 0.0 0.00 0.00 0.00 52 1012.3
20260504205531 78 0.0 0.0 0.00 0.00 0.00 52 1012.3
20260504205331 78 0.0 0.0 0.00 0.00 0.00 53 1012.2
20260504205131 77 0.0 0.0 0.00 0.00 0.00 53 1012.2
20260504204931 78 0.0 0.0 0.00 0.00 0.00 53 1012.2
20260504204731 77 0.0 0.0 0.00 0.00 0.00 53 1012.2
20260504204531 77 0.0 0.0 0.00 0.00 0.00 53 1012.2
20260504204331 77 0.0 0.0 0.00 0.00 0.00 54 1012.2
20260504204131 77 0.0 0.0 0.00 0.00 0.00 53 1012.2
20260504203931 77 0.0 0.0 0.00 0.00 0.00 54 1012.2
20260504203731 77 0.0 0.0 0.00 0.00 0.00 54 1012.1
20260504203533 77 0.0 0.0 0.00 0.00 0.00 54 1012.1
20260504203331 77 0.0 0.0 0.00 0.00 0.00 55 1012.0
20260504203131 77 0.0 0.0 0.00 0.00 0.00 55 1012.1
20260504202931 77 0.0 0.0 0.00 0.00 0.00 55 1012.0
20260504202731 77 0.0 0.0 0.00 0.00 0.00 55 1012.0
20260504202532 77 0.0 0.0 0.00 0.00 0.00 56 1011.9
20260504202332 77 0.0 0.0 0.00 0.00 0.00 56 1012.0
20260504202132 77 0.0 0.0 0.00 0.00 0.00 55 1011.9
20260504201931 78 0.0 0.0 0.00 0.00 0.00 54 1011.9
20260504201731 78 0.0 0.0 0.00 0.00 0.00 54 1011.8
20260504201532 78 0.0 0.0 0.00 0.00 0.00 54 1011.7
20260504201331 78 0.0 0.0 0.00 0.00 0.00 54 1011.7
20260504201131 78 0.0 0.0 0.00 0.00 0.00 54 1011.6
20260504200931 78 0.0 0.0 0.00 0.00 0.00 54 1011.6
20260504200731 77 0.0 0.0 0.00 0.00 0.00 55 1011.6
20260504200531 77 0.0 0.0 0.00 0.00 0.00 55 1011.5
20260504200331 77 0.0 0.0 0.00 0.00 0.00 55 1011.4
20260504200131 77 0.0 0.0 0.00 0.00 0.00 55 1011.4
20260504195931 77 0.0 0.0 0.00 0.00 0.00 55 1011.4
20260504195731 77 0.0 0.0 0.00 0.00 0.00 55 1011.3
20260504195531 77 0.0 0.0 0.00 0.00 0.00 54 1011.3
20260504195333 77 0.0 0.0 0.00 0.00 0.00 54 1011.3
20260504195131 77 0.0 0.0 0.00 0.00 0.00 55 1011.3
20260504194931 77 0.0 0.0 0.00 0.00 0.00 55 1011.2
20260504194731 77 0.0 0.0 0.00 0.00 0.00 55 1011.2
20260504194531 77 0.0 0.0 0.00 0.00 0.00 55 1011.1
20260504194331 77 0.0 0.0 0.00 0.00 0.00 55 1011.2
20260504194131 77 0.0 0.0 0.00 0.00 0.00 56 1011.1
20260504193931 77 0.0 0.0 0.00 0.00 0.00 56 1011.1
20260504193731 77 0.0 0.0 0.00 0.00 0.00 57 1011.1
20260504193532 77 0.0 0.0 0.00 0.00 0.00 57 1011.1
20260504193331 76 0.0 0.0 0.00 0.00 0.00 58 1011.1
20260504193134 76 0.0 0.0 0.00 0.00 0.00 58 1010.9
20260504192931 76 0.0 0.0 0.00 0.00 0.00 58 1010.9
20260504192731 76 0.0 0.0 0.00 0.00 0.00 59 1010.9
20260504192531 76 0.0 0.0 0.00 0.00 0.00 59 1010.8
20260504192331 75 0.0 0.0 0.00 0.00 0.00 59 1010.9
20260504192131 76 0.0 0.0 0.00 0.00 0.00 58 1010.9
20260504191931 75 0.0 0.0 0.00 0.00 0.00 58 1010.8
20260504191731 75 0.0 0.0 0.00 0.00 0.00 58 1010.9
20260504191531 75 0.0 0.0 0.00 0.00 0.00 58 1010.8
20260504191331 75 0.0 0.0 0.00 0.00 0.00 58 1010.8
20260504191131 75 0.0 0.0 0.00 0.00 0.00 58 1010.9
20260504190931 75 0.0 0.0 0.00 0.00 0.00 58 1010.8
20260504190731 75 0.0 0.0 0.00 0.00 0.00 57 1010.8
20260504190531 75 0.0 0.0 0.00 0.00 0.00 57 1010.8
20260504190331 75 0.0 0.0 0.00 0.00 0.00 57 1010.7
20260504190131 75 0.0 0.0 0.00 0.00 0.00 57 1010.7
20260504185931 76 0.0 0.0 0.00 0.00 0.00 57 1010.6
20260504185731 76 0.0 0.0 0.00 0.00 0.00 56 1010.7
20260504185531 76 0.0 0.0 0.00 0.00 0.00 57 1010.6
20260504185331 76 0.0 0.0 0.00 0.00 0.00 57 1010.6
20260504185131 76 0.0 0.0 0.00 0.00 0.00 57 1010.6
20260504184931 76 0.0 0.0 0.00 0.00 0.00 57 1010.6
20260504184731 76 0.0 0.0 0.00 0.00 0.00 57 1010.7
20260504184531 76 0.0 0.0 0.00 0.00 0.00 57 1010.6
20260504184331 75 0.0 0.0 0.00 0.00 0.00 57 1010.6
20260504184131 75 0.0 0.0 0.00 0.00 0.00 57 1010.7
20260504183931 75 0.0 0.0 0.00 0.00 0.00 57 1010.7
20260504183731 76 0.0 0.0 0.00 0.00 0.00 57 1010.6
20260504183531 76 0.0 0.0 0.00 0.00 0.00 58 1010.6
20260504183331 76 0.0 0.0 0.00 0.00 0.00 58 1010.5
20260504183131 76 0.0 0.0 0.00 0.00 0.00 57 1010.5
20260504182931 75 0.0 0.0 0.00 0.00 0.00 57 1010.4
20260504182734 75 0.0 0.0 0.00 0.00 0.00 58 1010.5
20260504182531 75 0.0 0.0 0.00 0.00 0.00 58 1010.5
20260504182331 76 0.0 0.0 0.00 0.00 0.00 60 1010.5
20260504181531 75 0.0 0.0 0.00 0.00 0.00 58 1010.4
20260504181331 74 0.0 0.0 0.00 0.00 0.00 60 1010.4
20260504181131 75 0.0 0.0 0.00 0.00 0.00 58 1010.4
20260504180931 75 0.0 0.0 0.00 0.00 0.00 58 1010.3
20260504180731 75 0.0 0.0 0.00 0.00 0.00 58 1010.4
20260504180531 75 0.0 0.0 0.00 0.00 0.00 59 1010.3
20260504180331 75 0.0 0.0 0.00 0.00 0.00 59 1010.3
20260504180131 75 0.0 0.0 0.00 0.00 0.00 58 1010.3
20260504175931 75 0.0 0.0 0.00 0.00 0.00 58 1010.3
20260504175731 75 0.0 0.0 0.00 0.00 0.00 57 1010.2
20260504175531 75 0.0 0.0 0.00 0.00 0.00 57 1010.3
20260504175331 75 0.0 0.0 0.00 0.00 0.00 57 1010.3
20260504175131 76 0.0 0.0 0.00 0.00 0.00 56 1010.2
20260504174931 76 0.0 0.0 0.00 0.00 0.00 55 1010.2
20260504174731 77 0.0 0.0 0.00 0.00 0.00 54 1010.2
20260504174531 77 0.0 0.0 0.00 0.00 0.00 53 1010.1
20260504174331 77 0.0 0.0 0.00 0.00 0.00 53 1010.1
20260504174131 77 0.0 0.0 0.00 0.00 0.00 53 1010.0
20260504173931 77 0.0 0.0 0.00 0.00 0.00 53 1010.0
20260504173731 77 0.0 0.0 0.00 0.00 0.00 53 1010.0
20260504173531 77 0.0 0.0 0.00 0.00 0.00 53 1010.0
20260504173331 77 0.0 0.0 0.00 0.00 0.00 53 1010.0
20260504173131 77 0.0 0.0 0.00 0.00 0.00 53 1010.0
20260504172931 77 0.0 0.0 0.00 0.00 0.00 53 1010.0
20260504172731 77 0.0 0.0 0.00 0.00 0.00 52 1010.0
20260504172531 77 0.0 0.0 0.00 0.00 0.00 52 1010.0
20260504172331 77 0.0 0.0 0.00 0.00 0.00 52 1009.9
20260504172131 77 0.0 0.0 0.00 0.00 0.00 53 1009.8
20260504171931 76 0.0 0.0 0.00 0.00 0.00 53 1009.8
20260504171731 77 0.0 0.0 0.00 0.00 0.00 53 1009.7
20260504171531 77 0.0 0.0 0.00 0.00 0.00 53 1009.7
20260504171331 77 0.0 0.0 0.00 0.00 0.00 53 1009.7
20260504171131 77 0.0 0.0 0.00 0.00 0.00 53 1009.7
20260504170931 76 0.0 0.0 0.00 0.00 0.00 53 1009.7
20260504170731 78 0.0 0.0 0.00 0.00 0.00 51 1009.8
20260504170531 77 0.0 0.0 0.00 0.00 0.00 52 1009.8
20260504170331 77 0.0 0.0 0.00 0.00 0.00 51 1009.8
20260504170131 78 0.0 0.0 0.00 0.00 0.00 51 1009.7
20260504160331 77 0.0 0.0 0.00 0.00 0.00 51 1009.9
20260504160131 76 0.0 0.0 0.00 0.00 0.00 52 1009.9
20260504151131 74 0.0 0.0 0.00 0.00 0.00 59 1009.9
20260504150931 76 0.0 0.0 0.00 0.00 0.00 57 1010.0
20260504150733 75 0.0 0.0 0.00 0.00 0.00 57 1009.9
20260504150531 76 0.0 0.0 0.00 0.00 0.00 56 1010.0
20260504150331 76 0.0 0.0 0.00 0.00 0.00 56 1009.9
20260504150131 75 0.0 0.0 0.00 0.00 0.00 56 1009.9
20260504141331 75 0.0 0.0 0.00 0.00 0.00 57 1010.3
20260504141131 74 0.0 0.0 0.00 0.00 0.00 58 1010.3
20260504140931 74 0.0 0.0 0.00 0.00 0.00 57 1010.3
20260504140731 74 0.0 0.0 0.00 0.00 0.00 57 1010.3
20260504140531 74 0.0 0.0 0.00 0.00 0.00 56 1010.3
20260504140332 75 0.0 0.0 0.00 0.00 0.00 55 1010.3
20260504140131 75 0.0 0.0 0.00 0.00 0.00 54 1010.3
20260504130731 75 0.0 0.0 0.00 0.00 0.00 54 1011.0
20260504130531 76 0.0 0.0 0.00 0.00 0.00 54 1011.0
20260504130331 75 0.0 0.0 0.00 0.00 0.00 55 1011.1
20260504130131 75 0.0 0.0 0.00 0.00 0.00 55 1011.1
20260504120131 74 0.0 0.0 0.00 0.00 0.00 56 1012.1
20260504110532 73 0.0 0.0 0.00 0.00 0.00 56 1012.8
20260504110331 74 0.0 0.0 0.00 0.00 0.00 55 1012.8
20260504110131 75 0.0 0.0 0.00 0.00 0.00 53 1012.7